Location: London
(51.5074°N, 0.1278°W)
Time: 07:33:36
(UTC+00:00)

TIGRISAT - Pass Details

Date: 11 October 2020
Orbit: 606 x 688 km, 97.7° (Epoch: 30 October)

Event Time Altitude Azimuth Distance (km) Brightness Sun altitude
Rises 22:31:59 0° 4° (N) 3,022 ? -37.9°
Reaches altitude 10° 22:34:36 10° 349° (N) 2,117 ? -38.2°
Enters shadow 22:35:50 16° 337° (NNW) 1,777 ? -38.3°
